www.pogodaiklimat.ru

Погода и климат >> Архив погоды >> Франция >> Дьепп


ПОГОДА в Дьеппе

  • Прогноз погоды в Дьеппе
  • Монитор погоды в Дьеппе

АРХИВ ПОГОДЫ в Дьеппе

Время (UTC), дата Ветер
(напр.,м/с)
 
Видим.   Явления Облачность Т
(С)
Тd
(С)
f
(%)
Тe
(С)
Тes
(С)
Комфортность P
(гПа)
Po
(гПа)
Тmin
(С)
Tmax
(С)
R
(мм)
R24
(мм)
S
(см)
16 16.08 ЮЗ 3-5
{6}
н/о н/о +21.2 +12.1 56 +23 +23 комфорт 1012.2 1007.5
17 16.08 ЮЗ 2-4
{6}
н/о н/о +20.8 +12.2 58 +24 +24 комфорт 1011.7 1007.0
18 16.08 Ю 2
{8}
н/о н/о +20.5 +12.5 60 +23 +23 комфорт 1011.3 1006.6 +14.6 +22.1
19 16.08 Ю 2-4
{5}
н/о н/о +19.1 +13.5 70 +21 +21 комфорт 1011.0 1006.3 0.2
20 16.08 Ю 2-3
{3}
н/о н/о +18.0 +14.3 79 +19 +19 1010.7 1006.0 0.4
21 16.08 Ю 3-4
{4}
н/о н/о +17.4 +14.3 82 +18 +18 1009.8 1005.1 0.8
22 16.08 Ю 4-6
{6}
н/о н/о +18.1 +14.0 77 +18 +18 1009.1 1004.4
23 16.08 Ю 3-6
{6}
н/о н/о +18.0 +13.7 76 +18 +18 1008.7 1004.0
00 17.08 Ю 3-6
{7}
н/о н/о +17.8 +13.9 78 +18 +18 1008.2 1003.5
01 17.08 Ю 3-6
{7}
н/о {морось} н/о +17.5 +14.2 81 +17 +17 1008.1 1003.4 0.0
02 17.08 Ю 3-5
{6}
н/о н/о +17.3 +14.9 86 +17 +17 1007.7 1003.0 0.0
03 17.08 Ю 3-4
{5}
14 км {морось} 9/0
[As trans]
+17.1 +15.4 90 +17 +17 1007.7 1003.0 0.2
04 17.08 Ю 2-4
{5}
н/о н/о +17.3 +15.8 91 +18 +18 1007.3 1002.6
05 17.08 Ю 3-5
{5}
н/о н/о +17.7 +16.6 93 +18 +18 1007.3 1002.6
06 17.08 Ю 2
{10}
8000 м {морось} 10/0
[As trans]
+17.8 +16.7 93 +18 +19 1007.4 1002.7 +17.0 +20.5
07 17.08 Ю 2-4
{5}
н/о н/о +18.1 +17.1 94 +19 +19 1007.6 1002.9
08 17.08 Ю 2-4
{5}
н/о н/о +18.3 +17.1 93 +19 +19 1007.8 1003.1
09 17.08 Ю 2-4
{4}
8000 м 10/10 800 м
[St]
+18.9 +17.7 93 +21 +21 комфорт 1007.5 1002.8
10 17.08 З 4-6
{6}
н/о н/о +17.4 +16.3 93 +17 +17 1008.3 1003.6 2
11 17.08 З 2-4
{5}
н/о н/о +17.1 +16.3 95 +17 +17 1008.2 1003.5
12 17.08 З 3-4
{5}
9000 м морось 10/10 480 м
[Frnb]
+17.5 +15.3 87 +18 +18 1008.5 1003.8 2
13 17.08 З 3-6
{6}
н/о н/о +18.0 +14.9 82 +18 +18 1008.7 1004.0 0.0
14 17.08 З 3-5
{6}
н/о н/о +18.4 +14.5 78 +19 +19 1008.5 1003.8 0.0
15 17.08 З 3
{9}
12 км {морось} 10/10 480 м
[Sc diur, vesp Ac As]
+18.5 +14.2 76 +19 +19 1009.0 1004.3 0.0
16 17.08 З 2-3
{4}
н/о н/о +18.5 +14.6 78 +20 +20 1008.9 1004.2
17 17.08 ЮЗ 2-3
{3}
н/о н/о +18.3 +14.4 78 +19 +19 1008.4 1003.7
18 17.08 З 1
{4}
10 км {морось} 10/10 480 м
[Cu hum Ac As]
+18.2 +14.3 78 +20 +20 1008.6 1003.9 +16.8 +19.3
19 17.08 ЮЗ 2-3
{3}
н/о н/о +17.8 +13.5 76 +19 +19 1008.5 1003.8
20 17.08 Ю 2-3
{3}
н/о н/о +17.4 +13.5 78 +18 +18 1008.6 1003.9
21 17.08 Ю 2-3
{3}
10 км 10/10 800 м
[St]
+17.2 +13.9 81 +18 +18 1008.5 1003.8
22 17.08 Ю 2-3
{3}
н/о н/о +16.7 +14.2 85 +17 +17 1008.2 1003.5
23 17.08 Ю 2-3
{3}
н/о н/о +16.5 +14.5 88 +17 +17 1007.6 1002.9
00 18.08 Ю 1-2
{3}
15 км 8/0 2000 м
[As op]
+16.4 +14.6 89 +17 +17 1007.3 1002.6
01 18.08 Ю 1-2
{3}
н/о н/о +16.3 +14.5 89 +17 +17 1006.6 1001.9
02 18.08 Ю 2-4
{4}
н/о н/о +15.4 +13.9 91 +15 +15 1006.6 1001.9 1
03 18.08 Ю 2-3
{4}
15 км 5/0 2000 м
[As op]
+14.9 +13.9 94 +15 +15 1005.6 1000.9 4
04 18.08 Ю 1-3
{3}
н/о н/о +14.6 +13.8 95 +15 +15 1004.3 999.6 2
05 18.08 Ю 1-2
{3}
н/о н/о +14.5 +13.9 96 +15 +15 1004.1 999.4 1
06 18.08 Ю 1
{5}
10 км 10/0
[As trans]
+13.9 +13.1 95 +14 +14 1003.9 999.2 +13.9 +18.2 4
07 18.08 Ю 1-2
{2}
н/о н/о +14.4 +13.3 93 +15 +15 1004.5 999.8
08 18.08 С 3-4
{4}
н/о н/о +15.2 +13.9 92 +15 +15 1005.3 1000.6
09 18.08 З 1-2
{5}
10 км 10/10 800 м
[St]
+16.2 +14.4 89 +17 +17 1006.3 1001.6
10 18.08 З 2-3
{3}
н/о н/о +16.8 +14.8 88 +17 +17 1007.2 1002.5
11 18.08 ЮЗ 2-5
{5}
н/о н/о +17.5 +15.3 87 +18 +18 1007.8 1003.1
12 18.08 З 4
{16}
15 км 8/8 480 м
[Cu Sc Ac As Ci]
+18.3 +14.4 78 +19 +20 1008.5 1003.8
13 18.08 З 4-7
{7}
н/о н/о +18.8 +13.2 70 +20 +20 1009.2 1004.5
14 18.08 З 4-6
{7}
н/о н/о +19.4 +13.1 67 +21 +21 комфорт 1009.9 1005.2
15 18.08 З 4-6
{6}
15 км 5/5 480 м
[Cu Sc]
+19.6 +13.5 68 +21 +24 комфорт 1010.1 1005.4
16 18.08 З 4-6
{7}
н/о н/о +19.2 +13.6 70 +20 +20 1010.6 1005.9
17 18.08 З 4-6
{6}
н/о н/о +18.6 +13.0 70 +19 +19 1010.9 1006.2
18 18.08 З 3
{11}
н/о н/о +18.1 +12.5 70 +19 +19 1011.1 1006.4 +13.9 +19.8
19 18.08 ЮЗ 2-4
{5}
н/о н/о +17.1 +11.8 71 +17 +17 1011.5 1006.8
20 18.08 ЮЗ 2-3
{4}
н/о н/о +16.2 +10.9 71 +16 +16 1012.1 1007.4
21 18.08 ЮЗ 2-4
{4}
10 км 4/4 480 м
[Cu Sc]
+15.8 +10.5 71 +16 +16 1012.5 1007.8
22 18.08 ЮЗ 3-5
{5}
н/о н/о +15.4 +11.0 75 +15 +15 1012.9 1008.1
23 18.08 ЮЗ 2-3
{4}
н/о н/о +15.3 +11.3 77 +15 +15 1013.5 1008.7
00 19.08 Ю 2-3
{4}
20 км 3/3 480 м
[Cu med, cong]
+14.9 +11.5 80 +15 +15 1013.8 1009.0
01 19.08 Ю 2-3
{4}
н/о н/о +14.5 +11.8 84 +14 +14 1014.2 1009.4
02 19.08 Ю 2-3
{4}
н/о н/о +13.7 +11.7 88 +13 +13 1014.4 1009.6 0.4
03 19.08 Ю 2-4
{4}
10 км 5/5 480 м
[Cu med, cong]
+14.0 +12.0 88 +13 +13 1014.5 1009.7 0.4
04 19.08 Ю 2-4
{4}
н/о н/о +13.4 +11.6 89 +13 +13 1014.7 1009.9
05 19.08 Ю 3-4
{4}
н/о н/о +13.7 +11.7 88 +13 +13 1015.1 1010.3
06 19.08 Ю 3
{9}
7000 м 6/5 480 м
[Cu med, cong]
+14.1 +12.0 87 +13 +14 1015.6 1010.8 +13.4 +18.1
07 19.08 ЮЗ 3-5
{5}
н/о н/о +15.1 +12.4 84 +15 +15 1015.9 1011.1
08 19.08 ЮЗ 2-4
{5}
н/о н/о +16.2 +12.7 80 +16 +16 1016.3 1011.5
09 19.08 ЮЗ 3-5
{5}
7000 м слаб. дождь 10/10 480 м
[Frnb]
+16.7 +12.8 78 +16 +16 1016.9 1012.1 0.0
10 19.08 З 3-5
{6}
н/о н/о +18.3 +11.8 66 +19 +19 1017.2 1012.5 0.0
11 19.08 З 4-7
{7}
н/о н/о +18.6 +12.8 69 +19 +19 1017.4 1012.7 0.2
12 19.08 З 4-7
{7}
7000 м слаб. дождь 8/8 480 м
[Cu med, cong]
+17.9 +12.3 70 +18 +20 1018.0 1013.3 0.2
13 19.08 З 4-7
{9}
н/о н/о +17.2 +13.5 79 +17 +17 1018.8 1014.0 1
14 19.08 З 3-5
{6}
н/о н/о +19.2 +13.6 70 +21 +21 комфорт 1018.8 1014.1 0.0
15 19.08 З 3-6
{6}
10 км {дождь} 5/5 480 м
[Cu med, cong]
+19.1 +13.1 68 +20 +24 1019.0 1014.3 1
16 19.08 З 4-6
{6}
н/о н/о +19.2 +13.1 68 +20 +20 1019.1 1014.4
17 19.08 З 3-6
{6}
н/о н/о +18.7 +13.3 71 +20 +20 1019.3 1014.6
18 19.08 З 3
{11}
н/о н/о +18.2 +13.3 73 +19 +19 1019.5 1014.8 +14.1 +19.5
19 19.08 ЮЗ 3-4
{5}
н/о н/о +17.2 +12.7 75 +17 +17 1019.9 1015.1
20 19.08 ЮЗ 2-3
{3}
н/о н/о +16.5 +12.6 78 +17 +17 1020.5 1015.7
21 19.08 ЮЗ 1-2
{3}
14 км 4/4 450 м
[Cu hum]
+15.8 +12.4 80 +16 +16 1020.9 1016.1
22 19.08 Ю 2-3
{3}
н/о н/о +15.3 +12.2 82 +15 +15 1021.1 1016.3
23 19.08 Ю 2-2
{3}
н/о н/о +15.0 +12.1 83 +15 +15 1021.4 1016.6
00 20.08 Ю 2-2
{2}
14 км 4/4 450 м
[Cu hum]
+13.5 +11.5 88 +13 +13 1021.5 1016.7
01 20.08 Ю 2-2
{3}
н/о н/о +13.0 +10.9 87 +13 +13 1021.6 1016.8
02 20.08 Ю 2-2
{3}
н/о н/о +12.8 +10.9 88 +12 +12 1021.4 1016.6
03 20.08 Ю 1-2
{3}
10 км 3/3 450 м
[Cu hum]
+12.7 +10.8 88 +13 +13 1021.5 1016.7
04 20.08 Ю 2-3
{3}
н/о н/о +12.2 +10.6 90 +11 +11 1021.6 1016.7
05 20.08 Ю 2-3
{3}
н/о н/о +12.2 +10.6 90 +12 +12 1022.3 1017.4
06 20.08 Ю 2
{6}
н/о н/о +12.7 +10.8 88 +12 +12 1022.8 1018.0 +12.1 +18.2
07 20.08 Ю 2-3
{3}
н/о н/о +13.9 +11.4 85 +14 +14 1023.4 1018.6
08 20.08 ЮЗ 1-3
{3}
н/о н/о +16.6 +12.1 75 +17 +17 1023.7 1018.9
09 20.08 З 2-4
{4}
н/о н/о +17.4 +11.7 69 +18 +18 1024.1 1019.3
10 20.08 З 3-4
{4}
н/о н/о +18.5 +12.7 69 +19 +19 1024.2 1019.4
11 20.08 З 3-4
{5}
н/о н/о +18.2 +11.3 64 +19 +19 1024.7 1019.9
12 20.08 З 3-5
{5}
12 км 8/8 480 м
[Cu med, cong]
+18.7 +12.0 65 +20 +22 1025.0 1020.2
13 20.08 З 3-5
{5}
н/о н/о +18.6 +11.9 65 +19 +19 1025.3 1020.5
14 20.08 З 3-5
{5}
н/о н/о +18.6 +12.6 68 +19 +19 1025.6 1020.8
15 20.08 З 6-5
{9}
18 км 6/6 480 м
[Cu med, cong]
+18.8 +11.8 64 +19 +20 1025.9 1021.1
16 20.08 З 4-4
{9}
н/о н/о +18.9 +12.9 68 +20 +20 1026.3 1021.5
17 20.08 З 4-3
{7}
н/о н/о +18.6 +10.2 58 +19 +19 1026.4 1021.6
18 20.08 З 2
{7}
18 км 1/0
[Ci sp]
+17.6 +10.5 63 +18 +18 1026.7 1021.9 +12.7 +19.0
19 20.08 З 1-2
{3}
н/о н/о +16.5 +10.3 67 +17 +17 1027.2 1022.4
20 20.08 ЮЗ 1-2
{3}
н/о н/о +15.6 +10.8 73 +16 +16 1027.6 1022.8
21 20.08 Ю 1-2
{3}
н/о н/о +15.0 +10.6 75 +16 +16 1027.9 1023.1
22 20.08 Ю 2-2
{2}
н/о н/о +13.8 +10.4 80 +14 +14 1028.1 1023.2
23 20.08 Ю 2-2
{3}
н/о н/о +13.0 +10.2 83 +13 +13 1028.2 1023.3
00 21.08 Ю 2-2
{2}
н/о н/о +11.5 +9.6 88 +11 +11 1028.3 1023.4
01 21.08 Ю 2-2
{3}
н/о н/о +10.8 +9.2 90 +10 +10 1028.1 1023.2
02 21.08 Ю 2-3
{3}
н/о н/о +10.1 +8.9 92 +8 +8 1028.1 1023.2
03 21.08 Ю 2-3
{3}
н/о н/о +9.5 +8.4 93 +8 +8 1028.0 1023.1
04 21.08 Ю 2-3
{3}
н/о н/о +9.3 +8.5 95 +7 +7 1028.0 1023.1
05 21.08 Ю 2-3
{3}
н/о н/о +8.9 +8.0 94 +7 +7 1028.4 1023.5
06 21.08 Ю 2
{5}
12 км 3/0
[Ci sp]
+9.1 +8.2 94 +7 +8 1028.6 1023.7 +8.8 +17.6
07 21.08 Ю 2-3
{3}
н/о н/о +11.4 +9.8 90 +10 +10 1028.9 1024.0
08 21.08 Ю 1-2
{3}
н/о н/о +14.2 +11.5 84 +15 +15 1029.1 1024.2
09 21.08 Ю 1-1
{2}
12 км 9/0
[Cs]
+17.0 +13.5 80 +19 +24 1028.9 1024.1
10 21.08 штиль 0-1
{2}
н/о н/о +19.5 +10.5 56 +20 +20 1028.7 1023.9
11 21.08 С 2-2
{2}
н/о н/о +19.6 +11.9 61 +22 +22 комфорт 1028.1 1023.3
12 21.08 С 2-3
{3}
н/о н/о +19.4 +12.6 65 +21 +21 комфорт 1027.8 1023.0
13 21.08 С 2-3
{3}
н/о н/о +19.2 +11.7 62 +21 +21 комфорт 1027.5 1022.7
14 21.08 С 2-3
{4}
н/о н/о +19.4 +12.6 65 +21 +21 комфорт 1027.1 1022.3
15 21.08 С 2-4
{4}
20 км 3/0
[Ci fib]
+19.1 +13.3 69 +21 +27 комфорт 1026.8 1022.0
16 21.08 С 2-3
{4}
н/о н/о +19.0 +13.0 68 +21 +21 комфорт 1026.9 1022.1
17 21.08 С 2-3
{3}
н/о н/о +18.7 +12.9 69 +20 +20 1026.5 1021.7
18 21.08 СВ 1
{6}
н/о н/о +18.2 +12.9 71 +20 +20 1026.3 1021.5 +9.0 +20.2
19 21.08 СВ 1-2
{2}
н/о н/о +17.7 +12.8 73 +19 +19 1026.4 1021.6
20 21.08 СВ 1-2
{2}
н/о н/о +16.6 +12.5 77 +17 +17 1026.5 1021.7
21 21.08 С 1-1
{1}
10 км ясно +16.3 +12.6 79 +18 +18 1026.6 1021.8
22 21.08 штиль 0
{1}
н/о н/о +15.0 +12.3 84 +15 +15 1026.6 1021.8
23 21.08 Ю 1-1
{2}
н/о н/о +13.8 +11.8 88 +14 +14 1026.5 1021.7
00 22.08 Ю 1-2
{2}
10 км ясно +13.1 +11.8 92 +13 +13 1026.5 1021.6
01 22.08 Ю 1-2
{2}
н/о н/о +12.4 +11.5 94 +12 +12 1026.2 1021.3
02 22.08 Ю 2-2
{2}
н/о н/о +12.0 +11.1 94 +11 +11 1025.9 1021.0 0.2
03 22.08 Ю 2-2
{2}
н/о н/о +11.3 +10.7 96 +10 +10 1025.8 1020.9 0.2
04 22.08 Ю 2-3
{3}
н/о н/о +10.6 +10.1 97 +9 +9 1025.7 1020.8
05 22.08 Ю 2-3
{3}
н/о н/о +10.2 +9.9 98 +8 +8 1025.8 1020.9
06 22.08 Ю 2
{6}
<100 м туман 4/0
[Ci fib]
+10.1 +9.8 98 +8 +9 1026.2 1021.3 +10.0 +18.2
07 22.08 Ю 2-3
{3}
н/о н/о +11.2 +10.9 98 +10 +10 1026.5 1021.6
08 22.08 Ю 1-2
{2}
н/о н/о +13.9 +11.8 87 +14 +14 1026.8 1022.0
09 22.08 З 1-1
{2}
15 км {туман} 3/0
[Ci fib]
+18.0 +11.1 64 +20 +28 1027.0 1022.2
10 22.08 СЗ 1-2
{2}
н/о н/о +20.5 +10.9 54 +23 +23 комфорт 1027.2 1022.5
11 22.08 СЗ 1-2
{2}
н/о н/о +20.5 +12.5 60 +24 +24 комфорт 1027.0 1022.3
12 22.08 СЗ 2-2
{2}
н/о н/о +21.2 +13.6 62 +24 +24 комфорт 1027.0 1022.3
13 22.08 С 2-3
{3}
н/о н/о +21.6 +15.0 66 +25 +25 комфорт 1026.8 1022.1
14 22.08 С 2-3
{3}
н/о н/о +21.3 +14.9 67 +24 +24 комфорт 1026.5 1021.8
15 22.08 С 2-2
{3}
14 км ясно +21.4 +15.5 69 +25 +33 комфорт 1026.4 1021.7
16 22.08 С 2-2
{3}
н/о н/о +20.5 +14.8 70 +24 +24 комфорт 1026.2 1021.5
17 22.08 СЗ 1-2
{2}
н/о н/о +20.1 +12.8 63 +23 +23 комфорт 1026.1 1021.4
18 22.08 С 1
{4}
н/о н/о +18.6 +12.6 68 +21 +21 комфорт 1026.2 1021.4 +10.1 +21.6
19 22.08 С 1-1
{2}
н/о н/о +17.4 +11.7 69 +19 +19 1026.4 1021.6
20 22.08 штиль 0
{1}
н/о н/о +16.6 +11.5 72 +17 +17 1026.7 1021.9
21 22.08 Ю 1-1
{1}
13 км ясно +15.5 +11.7 78 +16 +16 1026.8 1022.0
22 22.08 Ю 1-2
{2}
н/о н/о +13.8 +11.3 85 +14 +14 1026.7 1021.9
23 22.08 Ю 2-2
{2}
н/о н/о +12.9 +11.0 88 +12 +12 1026.6 1021.7
00 23.08 Ю 2-2
{3}
н/о н/о +12.3 +10.7 90 +12 +12 1026.5 1021.6
01 23.08 Ю 2-3
{3}
н/о н/о +11.6 +10.2 91 +10 +10 1026.2 1021.3
02 23.08 Ю 2-3
{3}
н/о н/о +11.1 +9.8 92 +10 +10 1026.2 1021.3
03 23.08 Ю 4-3
{5}
13 км ясно +10.6 +9.5 93 +8 +8 1026.0 1021.1
04 23.08 Ю 4-3
{5}
н/о н/о +10.1 +9.2 94 +7 +7 1025.7 1020.8
05 23.08 Ю 2-2
{3}
н/о н/о +9.8 +8.9 94 +9 +9 1025.7 1020.8
06 23.08 Ю 2
{5}
н/о н/о +10.1 +9.0 93 +9 +9 1025.8 1020.9 +9.7 +18.6
07 23.08 Ю 2-2
{3}
н/о н/о +11.9 +9.6 86 +11 +11 1026.0 1021.1
08 23.08 Ю 1-1
{2}
н/о н/о +15.5 +11.7 78 +17 +17 1025.8 1021.0
09 23.08 СВ 2-3
{3}
13 км 4/0
[Ci fib]
+19.1 +14.8 76 +21 +28 комфорт 1025.8 1021.0
10 23.08 СВ 2-3
{3}
н/о н/о +19.4 +14.9 75 +22 +22 комфорт 1025.5 1020.8
11 23.08 СВ 2-3
{3}
н/о н/о +19.6 +15.0 75 +22 +22 комфорт 1025.2 1020.5
12 23.08 СВ 1-3
{3}
н/о н/о +20.0 +15.0 73 +23 +23 комфорт 1024.8 1020.1
13 23.08 С 1-3
{3}
н/о н/о +20.2 +15.4 74 +24 +24 комфорт 1024.5 1019.8
14 23.08 СВ 2-3
{3}
н/о н/о +21.0 +15.8 72 +25 +25 комфорт 1023.9 1019.2
15 23.08 СВ 2-3
{3}
25 км 5/0
[]
+21.2 +15.7 71 +24 +30 комфорт 1023.5 1018.8
16 23.08 СВ 2-3
{3}
н/о н/о +21.0 +15.1 69 +25 +25 комфорт 1022.9 1018.2
17 23.08 СВ 2-3
{3}
н/о н/о +20.6 +16.6 78 +25 +25 комфорт 1022.5 1017.8

 

Местоположение метеостанции Дьепп (Франция): широта 49.93 долгота 1.10 высота над уровнем моря 38 м.

В архиве по умолчанию представлена погода в Дьеппе за последнюю неделю. Архивные данные за месяц целиком и за предыдущие месяцы, начиная с января 2011 года, Вы можете получить, выбрав интересующий диапазон дат из раскрывающегося списка и нажав кнопку "Ввод!".


*Определитесь, кто Вы:
робот инопланетянин человек

Внимание! Время в таблицах - всемирное. Для получения местного времени необходимо прибавить поправку, которая равна 1 ч.

Смотрите также архив погоды в соседних городах и на ближайших метеорологических станциях:

Погода в Аббевилле (Франция) (57 км)
Погода в Руанском (Франция) (61 км)
Погода в Ле-Туке-Пари-Плаже (Франция) (75 км)
Погода в Гавр аэропорту (Франция) (86 км)
Погода в Гавре (Франция) (88 км)
Погода в Бове (Франция) (89 км)
Погода в Довиле (Франция) (91 км)
Погода в Булонь-сюр-Мере (Франция) (96 км)
Погода в Эврё (Франция) (102 км)
Погода в Меоте (Франция) (115 км)

Пояснения к столбцам:

Ветер - указаны скорость ветра в м/с - средняя за 10 мин, порывы в срок и между сроками (в фигурных скобках) и направление, откуда дует ветер: С - северный, СВ - северо-восточный, В - восточный, ЮВ - юго-восточный, Ю - южный, ЮЗ - юго-западный, З - западный, СЗ - северо-западный.
Видимость - горизонтальная дальность видимости в метрах или километрах. При видимости от 1 до 10 км при отсутствии осадков обычно наблюдается дымка, при ухудшении видимости до 1 км и менее - туман. В сухую погоду видимость может ухудшаться дымом, пылью или мглою.
Явления - указаны атмосферные явления, наблюдавшиеся в срок или в последний час перед сроком; фигурными скобками обозначены явления, наблюдавшиеся между сроками (за 1-3 часа до срока); квадратными скобками обозначены град или гололедные отложения с указанием их диаметра в мм.
Облачность - указаны через наклонную черту общая и нижняя облачность в баллах и высота нижней границы облаков в метрах; квадратными скобками обозначены формы облаков: Ci - перистые, Cs - перисто-слоистые, Cc - перисто-кучевые, Ac - высококучевые, As - высокослоистые, Sc - слоисто-кучевые, Ns - слоисто-дождевые, Cu - кучевые, Cb - кучево-дождевые. Подробнее классификацию облаков см. в Атласе облаков (PDF).
T - Температура воздуха - температура, измеренная на высоте 2 м над землей.
Td - Температура точки росы - температура, при понижении до которой содержащийся в воздухе водяной пар достигнет насыщения.
f - Относительная влажность воздуха - влажноcть воздуха, измеренная на высоте 2 м над землей.
Te - Эффективная температура - температура, которую ощущает одетый по сезону человек в тени. Характеристика душности погоды. При расчете учитывается влияние влажности воздуха и скорости ветра на теплоощущения человека.
Tes - Эффективная температура на солнце - температура, которую ощущает человек, с поправкой на солнечный нагрев. Характеристика знойности погоды. Зависит от высоты солнца над горизонтом, облачности и скорости ветра. Ночью, в пасмурную погоду, а также при ветре 12 м/с и более поправка равна нулю.
P - Атмосферное давление - приведенное к уровню моря атмосферное давление.
Po - Атмосферное давление - измеренное на уровне метеостанции атмосферное давление.
Tmin - Минимальная температура - минимум температуры воздуха на высоте 2 м над землей.
Tmax - Максимальная температура - максимум температуры воздуха на высоте 2 м над землей.
R - Количество осадков - Количество выпавших осадков за период времени, мм. При наведении курсора мыши на число - период времени, за который выпало указанное количество осадков.
R24 - Количество осадков - Количество выпавших осадков за 24 часа, мм.
S - Снежный покров - Высота снежного покрова, см. При наведении курсора мыши на число - состояние снежного покрова и степень покрытия местности в баллах.